Regional Weather Roundup
Issued by NWS Kansas City/Pleasant Hill, MO

Home | Current Version | Previous Version | Graphics & Text | Print | Product List | Glossary Off
Versions: 1 2 3 4 5 6 7 8 9 10 11 12 13 14 15 16 17 18 19 20 21 22 23 24 25 26 27 28 29 30 31 32 33 34 35 36 37 38 39 40 41 42 43 44 45 46 47 48 49 50

008
ASUS43 KEAX 290210
RWREAX

WEATHER ROUNDUP FOR EASTERN KANSAS AND NORTHWEST MISSOURI
NATIONAL WEATHER SERVICE KANSAS CITY/PLEASANT HILL MO
900 PM CDT SUN MAY 28 2017

KSZ040-057-103>105-MOZ028-029-037-043-290300-
...KANSAS CITY METROPOLITAN AREA...

CITY           SKY/WX    TMP DP  RH WIND       PRES   REMARKS
K.C. INTL      PTCLDY    68  52  56 SW7       29.89F
K.C. DOWNTOWN  CLEAR     74  49  41 SW5       29.88F
LEES SUMMIT    CLEAR     71  52  50 SW5       29.90F
OLATHE - IXD   CLEAR     70  52  52 SW6       29.91F
OLATHE - OJC   CLEAR     69  52  54 CALM      29.91F
LAWRENCE       CLEAR     71  51  49 SW7       29.90F

$$

MOZ001>008-011>017-020>025-030>033-038>040-044>046-053-054-290300-
...NORTHERN AND CENTRAL MISSOURI...

CITY           SKY/WX    TMP DP  RH WIND       PRES   REMARKS
ST. JOSEPH     CLEAR     68  53  58 NW8       29.89R
MOSBY          CLEAR     72  50  46 SW3       29.88F
WARRENSBURG    CLEAR     68  52  56 SW5       29.90S
WHITEMAN AFB   CLEAR     71  53  52 W5        29.89F
CLINTON        CLEAR     68  55  64 CALM      29.91S
SEDALIA        CLEAR     71  54  54 W6        29.91F
WARSAW         NOT AVBL
CHILLICOTHE      N/A     69  53  56 CALM      29.87S
KIRKSVILLE     PTCLDY    68  49  50 SW5       29.86S

$$

MOZ041-047>049-056>058-063>065-088>090-097-290300-
...EASTERN AND SOUTHERN MISSOURI...

CITY           SKY/WX    TMP DP  RH WIND       PRES   REMARKS
ST. LOUIS INTL PTCLDY    74  55  51 SW8       29.87S
SPIRIT OF STL  PTCLDY    65  60  84 W5        29.85F
COLUMBIA       CLEAR     71  57  61 W3        29.89S
JEFFERSON CITY CLEAR     75  57  53 N3        29.87S
ROLLA          CLEAR     61  57  87 S8        29.90F
OSAGE BEACH    CLEAR     64  60  87 CALM      29.91F
SPRINGFIELD    CLEAR     66  58  75 S5        29.95R
BRANSON        CLEAR     66  55  68 CALM      30.00R
JOPLIN         CLEAR     70  55  59 CALM      29.94F
WEST PLAINS    CLEAR     64  58  80 NW3       29.97R

$$

IAZ060-094-KSZ022-034>040-054-083-096-NEZ052-066-093-290300-
...KANSAS...SOUTHEAST NEBRASKA AND IOWA...

CITY           SKY/WX    TMP DP  RH WIND       PRES   REMARKS
TOPEKA         CLEAR     74  52  46 W6        29.90F
MANHATTAN      CLEAR     70  54  56 W5        29.93S
EMPORIA        CLEAR     68  52  56 W5        29.95S
CHANUTE        CLEAR     70  49  47 NW5       29.94S
WICHITA        CLEAR     71  46  40 NW7       29.98S
OMAHA          PTCLDY    72  42  34 W5        29.89S
LINCOLN        PTCLDY    72  41  32 NW6       29.93S
FALLS CITY     CLEAR     68  45  43 NW6       29.90R
LAMONI         CLEAR     68  46  45 NW12      29.87R
DES MOINES     PTCLDY    71  41  33 NW9       29.84R

$$





USA.gov is the U.S. government's official web portal to all federal, state and local government web resources and services.